When you browse on this site, cookies collect data to enhance your experience and personalize the content and advertising you see.
Visit our Privacy Policy to learn more. By continuing to use the site, you agree to this use of cookies and data.
  • In Romania
  • List of Countries
  • For 7 days
  • Water Temperature
  • Satellite Maps
  • Weather Map
  • Weather Widgets
  • user-avatar
    Login

    Hourly Weather Aci Bonaccorsi

    Today, 22 July, Monday

    Time Temperature Precipitation Wind Pressure Humidity
    00:00 +26°C° 0 mm 1 mps 738 mmHg 47%
    01:00 +26°C° 0 mm 2 mps 739 mmHg 46%
    02:00 +26°C° 0 mm 2 mps 738 mmHg 47%
    03:00 +25°C° 0 mm 2 mps 738 mmHg 48%
    04:00 +25°C° 0 mm 2 mps 737 mmHg 49%
    05:00 +26°C° 0 mm 2 mps 737 mmHg 47%
    06:00 +28°C° 0 mm 2 mps 738 mmHg 44%
    07:00 +29°C° 0 mm 2 mps 738 mmHg 42%
    08:00 +30°C° 0 mm 2 mps 738 mmHg 40%
    09:00 +31°C° 0 mm 2 mps 738 mmHg 37%
    10:00 +34°C° 0 mm 3 mps 739 mmHg 35%
    11:00 +34°C° 0 mm 3 mps 738 mmHg 34%
    12:00 +34°C° 0 mm 2 mps 738 mmHg 34%
    13:00 +35°C° 0 mm 2 mps 738 mmHg 33%
    14:00 +35°C° 0 mm 2 mps 738 mmHg 33%
    15:00 +34°C° 0 mm 3 mps 738 mmHg 33%
    16:00 +34°C° 0 mm 3 mps 737 mmHg 33%
    17:00 +32°C° 0 mm 2 mps 737 mmHg 37%
    18:00 +30°C° 0 mm 2 mps 737 mmHg 41%
    19:00 +29°C° 0 mm 1 mps 737 mmHg 44%
    20:00 +28°C° 0 mm 1 mps 737 mmHg 45%
    21:00 +28°C° 0 mm 1 mps 737 mmHg 46%
    22:00 +27°C° 0 mm 1 mps 737 mmHg 47%
    23:00 +27°C° 0 mm 1 mps 737 mmHg 45%

    Tomorrow, 23 July, Tuesday

    Time Temperature Precipitation Wind Pressure Humidity
    00:00 +27°C° 0 mm 1 mps 737 mmHg 43%
    01:00 +26°C° 0 mm 1 mps 736 mmHg 42%
    02:00 +26°C° 0 mm 1 mps 736 mmHg 41%
    03:00 +26°C° 0 mm 1 mps 736 mmHg 40%
    04:00 +26°C° 0 mm 1 mps 735 mmHg 40%
    05:00 +27°C° 0 mm 1 mps 736 mmHg 39%
    06:00 +28°C° 0 mm 1 mps 736 mmHg 37%
    07:00 +30°C° 0 mm 1 mps 736 mmHg 36%
    08:00 +31°C° 0 mm 1 mps 736 mmHg 34%
    09:00 +32°C° 0 mm 2 mps 736 mmHg 31%
    10:00 +35°C° 0 mm 2 mps 736 mmHg 29%
    11:00 +35°C° 0 mm 2 mps 736 mmHg 29%
    12:00 +36°C° 0 mm 2 mps 736 mmHg 29%
    13:00 +36°C° 0 mm 3 mps 736 mmHg 29%
    14:00 +36°C° 0 mm 3 mps 735 mmHg 30%
    15:00 +35°C° 0 mm 3 mps 735 mmHg 32%
    16:00 +35°C° 0 mm 3 mps 735 mmHg 33%
    17:00 +33°C° 0 mm 3 mps 735 mmHg 37%
    18:00 +31°C° 0 mm 2 mps 735 mmHg 40%
    19:00 +30°C° 0 mm 2 mps 735 mmHg 44%
    20:00 +29°C° 0 mm 2 mps 735 mmHg 45%
    21:00 +28°C° 0 mm 2 mps 735 mmHg 46%
    22:00 +28°C° 0 mm 2 mps 735 mmHg 47%
    23:00 +27°C° 0 mm 2 mps 735 mmHg 49%

    Day after tomorrow, 24 July, Wednesday

    Time Temperature Precipitation Wind Pressure Humidity
    00:00 +27°C° 0 mm 2 mps 735 mmHg 50%
    01:00 +27°C° 0 mm 2 mps 734 mmHg 51%
    02:00 +26°C° 0 mm 2 mps 734 mmHg 53%
    03:00 +26°C° 0 mm 1 mps 734 mmHg 55%
    04:00 +26°C° 0 mm 1 mps 734 mmHg 57%
    05:00 +27°C° 0 mm 1 mps 734 mmHg 53%
    06:00 +28°C° 0 mm 1 mps 734 mmHg 49%
    07:00 +29°C° 0 mm 1 mps 734 mmHg 45%
    08:00 +30°C° 0 mm 1 mps 734 mmHg 41%
    09:00 +32°C° 0 mm 1 mps 734 mmHg 37%
    10:00 +34°C° 0 mm 2 mps 734 mmHg 33%
    11:00 +35°C° 0 mm 2 mps 734 mmHg 33%
    12:00 +35°C° 0 mm 2 mps 734 mmHg 32%
    13:00 +35°C° 0 mm 2 mps 734 mmHg 32%
    14:00 +35°C° 0 mm 3 mps 734 mmHg 34%
    15:00 +34°C° 0 mm 3 mps 734 mmHg 35%
    16:00 +34°C° 0 mm 3 mps 734 mmHg 37%
    17:00 +31°C° 0 mm 3 mps 734 mmHg 40%
    18:00 +30°C° 0 mm 2 mps 734 mmHg 44%
    19:00 +29°C° 0 mm 2 mps 734 mmHg 48%
    20:00 +28°C° 0 mm 1 mps 734 mmHg 51%
    21:00 +27°C° 0 mm 1 mps 734 mmHg 54%
    22:00 +27°C° 0 mm 1 mps 735 mmHg 57%
    23:00 +26°C° 0 mm 1 mps 734 mmHg 56%

    25 July, Thursday

    Time Temperature Precipitation Wind Pressure Humidity
    00:00 +26°C° 0 mm 1 mps 734 mmHg 55%
    01:00 +26°C° 0 mm 1 mps 734 mmHg 54%
    02:00 +26°C° 0 mm 1 mps 734 mmHg 54%
    03:00 +26°C° 0 mm 1 mps 734 mmHg 54%
    04:00 +26°C° 0 mm 1 mps 734 mmHg 54%
    05:00 +27°C° 0 mm 1 mps 734 mmHg 51%
    06:00 +28°C° 0 mm 1 mps 734 mmHg 49%
    07:00 +29°C° 0 mm 1 mps 734 mmHg 46%
    08:00 +30°C° 0 mm 1 mps 735 mmHg 44%
    09:00 +31°C° 0 mm 2 mps 735 mmHg 42%
    10:00 +32°C° 0 mm 2 mps 735 mmHg 39%
    11:00 +34°C° 0 mm 2 mps 735 mmHg 38%
    12:00 +34°C° 0 mm 3 mps 735 mmHg 37%
    13:00 +35°C° 0 mm 3 mps 735 mmHg 36%
    14:00 +34°C° 0 mm 3 mps 734 mmHg 38%
    15:00 +33°C° 0 mm 3 mps 734 mmHg 41%
    16:00 +31°C° 0 mm 3 mps 734 mmHg 43%
    17:00 +30°C° 0 mm 2 mps 734 mmHg 47%
    18:00 +29°C° 0 mm 2 mps 734 mmHg 51%
    19:00 +28°C° 0 mm 1 mps 734 mmHg 55%
    20:00 +28°C° 0 mm 1 mps 734 mmHg 57%
    21:00 +27°C° 0 mm 1 mps 734 mmHg 59%
    22:00 +24°C° 0 mm 0 mps 734 mmHg 61%
    23:00 +24°C° 0 mm 0 mps 734 mmHg 61%

    26 July, Friday

    Time Temperature Precipitation Wind Pressure Humidity
    00:00 +26°C° 0 mm 1 mps 734 mmHg 61%
    01:00 +26°C° 0 mm 1 mps 734 mmHg 60%
    02:00 +26°C° 0 mm 1 mps 733 mmHg 61%
    03:00 +26°C° 0 mm 1 mps 733 mmHg 61%
    04:00 +24°C° 0 mm 0 mps 733 mmHg 61%
    05:00 +25°C° 0 mm 0 mps 733 mmHg 57%
    06:00 +26°C° 0 mm 0 mps 733 mmHg 53%
    07:00 +27°C° 0 mm 0 mps 734 mmHg 49%
    08:00 +30°C° 0 mm 1 mps 734 mmHg 46%
    09:00 +32°C° 0 mm 1 mps 734 mmHg 42%
    10:00 +34°C° 0 mm 2 mps 734 mmHg 38%
    11:00 +34°C° 0 mm 2 mps 734 mmHg 38%
    12:00 +34°C° 0 mm 3 mps 734 mmHg 38%
    13:00 +34°C° 0 mm 3 mps 734 mmHg 39%
    14:00 +34°C° 0 mm 3 mps 733 mmHg 40%
    15:00 +34°C° 0 mm 3 mps 733 mmHg 41%
    16:00 +33°C° 0 mm 3 mps 733 mmHg 42%
    17:00 +31°C° 0 mm 2 mps 733 mmHg 45%
    18:00 +30°C° 0 mm 2 mps 733 mmHg 48%
    19:00 +29°C° 0 mm 1 mps 733 mmHg 52%
    20:00 +29°C° 0 mm 1 mps 733 mmHg 53%
    21:00 +28°C° 0 mm 1 mps 733 mmHg 55%
    22:00 +27°C° 0 mm 2 mps 733 mmHg 57%
    23:00 +27°C° 0 mm 1 mps 733 mmHg 57%

    27 July, Saturday

    Time Temperature Precipitation Wind Pressure Humidity
    00:00 +27°C° 0 mm 1 mps 733 mmHg 57%
    01:00 +27°C° 0 mm 1 mps 733 mmHg 58%
    02:00 +27°C° 0 mm 1 mps 732 mmHg 57%
    03:00 +26°C° 0 mm 1 mps 732 mmHg 57%
    04:00 +26°C° 0 mm 1 mps 732 mmHg 57%
    05:00 +28°C° 0 mm 1 mps 732 mmHg 52%
    06:00 +29°C° 0 mm 1 mps 732 mmHg 47%
    07:00 +30°C° 0 mm 1 mps 732 mmHg 43%
    08:00 +31°C° 0 mm 1 mps 733 mmHg 40%
    09:00 +32°C° 0 mm 1 mps 733 mmHg 38%
    10:00 +35°C° 0 mm 2 mps 733 mmHg 35%
    11:00 +35°C° 0 mm 2 mps 733 mmHg 35%
    12:00 +35°C° 0 mm 2 mps 733 mmHg 34%
    13:00 +36°C° 0 mm 2 mps 732 mmHg 33%
    14:00 +36°C° 0 mm 2 mps 732 mmHg 34%
    15:00 +35°C° 0 mm 3 mps 732 mmHg 35%
    16:00 +35°C° 0 mm 3 mps 732 mmHg 36%
    17:00 +34°C° 0 mm 2 mps 732 mmHg 39%
    18:00 +31°C° 0 mm 1 mps 731 mmHg 43%
    19:00 +30°C° 0 mm 1 mps 731 mmHg 47%
    20:00 +29°C° 0 mm 1 mps 731 mmHg 48%
    21:00 +28°C° 0 mm 1 mps 732 mmHg 49%
    22:00 +28°C° 0 mm 1 mps 732 mmHg 50%
    23:00 +27°C° 0 mm 2 mps 732 mmHg 50%
    Show more